Погода в Кочубеевском

Россия / Ставропольский край     44°41′26″N   41°49′27″E
темп.,
°C
ветер,
м/с
пор.,
м/с
влажн.,
%
обл.,
%
осадки,
мм/ч
давл.,
гПа
погр.,
м
28 июня, вт
вт2800:00+18юв1296100 5.8 101156
03:00+16всв2296100 7.1 101126
06:00+18вюв1293100 0.3 101192
09:00+21вюв4674100 1.5 1011822
12:00+25всв465837 0.7 10111321
15:00+24св696290 0.8 1010630
18:00+20св5127586 1.1 1012358
21:00+17всв397779 1.6 1013151
29 июня, ср
ср2900:00+16всв22747 0.1 101316
03:00+15вюв22745 0.1 101320
06:00+17в227557 0.0 101356
09:00+23в355578 0.0 1013627
12:00+26в574397 0.0 10131450
15:00+27всв564292 0.0 10121950
18:00+26вюв355965 0.0 1012174
21:00+20всв226514 0.0 101314
30 июня, чт
чт3000:00+20в6145998 0.0 1013401
03:00+17в49713 0.0 1013232
06:00+18в412830 0.0 1013446
09:00+23вюв710640 0.0 1013830
12:00+26в785212 0.0 10121603
15:00+26в675191 0.0 10121802
18:00+22всв3865100 0.0 1012216
21:00+22всв41144100 0.0 1013354
1 июля, пт
пт100:00+21всв5123628 0.0 1013409
03:00+16всв35463 0.0 101387
06:00+16в256011 0.0 1014129
09:00+22всв574590 0.0 1014715
12:00+25всв663975 0.0 10141687
15:00+26в563920 0.0 10132236
18:00+24вюв355487 0.0 1014269
21:00+18в226152 0.0 101518
2 июля, сб
сб200:00+16в22638 0.0 101516
03:00+15в22652 0.0 101521
06:00+16в24685 0.0 1016103
09:00+23в58430 0.0 1016752
12:00+26в78340 0.0 10162132
15:00+26в78340 0.0 10152368
18:00+24всв610453 0.0 1014435
21:00+18всв412515 0.0 1015219